Location: Fontevrault
(47.1823°N, 0.0493°E)
Time: 01:29:01
(UTC+00:00)

Cosmos 2058 Rocket - Pass Details

Date: 31 October 2021
Orbit: 610 x 640 km, 82.5° (Epoch: 30 November)

Event Time Altitude Azimuth Distance (km) Brightness Sun altitude
Rises 17:33:17 0° 139° (SE) 2,909 6.2 -8.8°
Reaches altitude 10° 17:36:30 10° 114° (ESE) 2,001 5.2 -9.3°
Maximum altitude 17:38:44 14° 83° (E) 1,757 4.7 -9.7°
Enters shadow 17:40:12 12° 62° (ENE) 1,863 4.9 -9.9°
